Regional Weather Roundup
Issued by NWS Newport/Morehead, NC

Current Version | Previous Version | Text Only | Print | Product List | Glossary On
Versions: 1 2 3 4 5 6 7 8 9 10 11 12 13 14 15 16 17 18 19 20 21 22 23 24 25 26 27 28 29 30 31 32 33 34 35 36 37 38 39 40 41 42 43 44 45 46 47 48 49 50
000
ASUS42 KMHX 020913
RWRMHX
WEATHER ROUNDUP FOR EASTERN NORTH CAROLINA
NATIONAL WEATHER SERVICE NEWPORT/MOREHEAD CITY NC
500 AM EDT TUE JUN 02 2015

NOTE: "FAIR" INDICATES FEW OR NO CLOUDS BELOW 12,000 FEET
WITH NO SIGNIFICANT WEATHER AND/OR OBSTRUCTIONS TO VISIBILITY

NCZ015>017-031-032-045>047-102-103-021000-
NORTH COAST

CITY           SKY/WX    TMP DP  RH WIND       PRES   REMARKS
EDENTON        PTCLDY    72  69  90 S8        30.01S
ELIZABETH CITY CLEAR     72  69  90 S5        30.00F
KITTY HAWK     MOSUNNY   74  69  83 SW6       30.01S
MANTEO         CLEAR     74  69  84 SW9       30.02F

$$

NCZ045>047-081-094-103-104-021000-
CENTRAL COAST

CITY           SKY/WX    TMP DP  RH WIND       PRES   REMARKS
FRISCO         PTCLDY    73  68  84 W6        30.03F
SWANQUARTER      N/A     75 N/A N/A S12       29.97S

$$

NCZ095-097-098-100-101-021000-
SOUTHERN COAST

CITY           SKY/WX    TMP DP  RH WIND       PRES   REMARKS
BEAUFORT       CLEAR     75  70  84 S7        30.01F
CEDAR ISLAND     N/A     72 N/A N/A S2        30.06S
JACKSONVILLE   MOCLDY    72  69  90 S3        30.01S
PINEY ISLAND   SUNNY    N/A N/A N/A S5        30.01F
WILMINGTON     PTCLDY    71  69  93 CALM      30.01F


$$

NCZ011>013-027>030-043-044-078>080-089-090>093-098-021000-
COASTAL PLAIN

CITY           SKY/WX    TMP DP  RH WIND       PRES   REMARKS
AHOSKIE        PTCLDY    68  66  93 S3        29.99F
CLINTON        CLEAR     69  69 100 CALM      30.01S
ELIZABETHTOWN  PTCLDY    71  70  96 CALM      30.00F
GOLDSBORO      PTCLDY    71  69  95 CALM      29.99S
GREENVILLE     MOCLDY    70  70 100 S6        30.02F
HAVELOCK       PTCLDY    70  67  90 CALM      30.02F
KENANSVILLE    PTCLDY    66  65  96 CALM      30.02F
KINSTON        PTCLDY    71  69  94 S6        30.01F
NEW BERN       MOCLDY    69  67  93 CALM      30.02F
RICHLANDS      CLOUDY    68  64  88 S3        30.02S
ROCKY MOUNT    PTCLDY    69  68  96 SE5       30.00S
WASHINGTON     PTCLDY    72  68  89 S6        30.01F
WHITEVILLE     PTCLDY    70  68  93 CALM      30.00S

$$

AMZ130-135-150-152-154-156-158-170-250-252-270-ANZ085-086-088-633-658-670-021000-
MARINE OBSERVATIONS

STATION/POSITION TIME  TEMP    WIND        PRES    WAVE   SWELL
                       AIR SEA DIR/SP/G            HT/PER HT/PER
                 (UTC) (F)     (DEG/KT/KT) (MB)    (FT/S) (FT/S)
CHESAPEAKE LIGHT 0900   69     150/ 15/ 15 1016.4
64 E VA BEACH    0850   73 72  220/  4/  6 1016.3    3/ 7   3/ 7
DUCK             0800   75 55  200/  8/ 12 1015.6
2 E DUCK         0811      59                N/A     2/ 8
OREGON INLET     0800   76 78  220/ 12/ 13 1016.8
13E OREGON INLT  0900      75                N/A     3/ 8
HATTERAS CG      0800   74 80  230/  4/  6 1016.6
DIAMOND BUOY     0850   77 81  250/ 10/ 14 1016.7    3/ 8   3/ 8
CAPE LOOKOUT     0900   75     190/  6/  7 1016.2
BEAUFORT LAB     0800   76 78  210/  7/ 10 1016.0
30 SE NEW RVR IN 0808   77 77  210/  8/ 12 1016.9
27 SE WRIGHTSVLE 0800      77  220/  6/  8   N/A
5 SE WRIGHTSVLE  0808   77 78  210/ 10/ 14 1016.4
225 S CAPE HAT   0850   76 77  240/  2/  4 1017.7    4/ 8   3/ 8
41 SE CHARLESTON 0850   79 80  230/  6/  8 1015.7    3/ 9   3/ 9

$$


USA.gov is the U.S. government's official web portal to all federal, state and local government web resources and services.